Find Starlink 32046

NORAD ID: 60198 Int'l Des: 2024-124 Owner: SPXS Country: US Constellation: starlink operational
LEOCIRCULAR

实时位置

正在加载3D地球...

关于 Starlink 32046

正在加载描述...

即将过境

Passes for default location (London). Set your location on the main map for personalized predictions.

高度历史

Loading altitude history...

两行轨道根数

1 60198U 24124R 26127.78980507 .00002803 00000-0 10681-3 0 9991
2 60198 53.1617 48.0196 0001536 83.0352 277.0823 15.30176357104577
Epoch: May 7, 2026 • Age: 5 hours

当前状态

高度 485.1 km
速度 7.62 km/s
星下点 -30.34°S, 163.15°E
发射日期 Jul 3, 2024
运行时间 1.8 years
类型 internet

技术详情

分类 Payload
质量 730.00 kg
干质量 700.00 kg
总质量 730.00 kg
长度 0.30 m
直径 4.10 m
跨度 29.00 m
形状 Box + pan
制造商 SPXS
平台类型 Starlink V2M
阶段状态 In Orbit
所有者/国家 SPXS/US

Most Searched